Regional Weather Roundup
Issued by NWS Newport/Morehead, NC

Current Version | Previous Version | Graphics & Text | Print | Product List | Glossary Off
Versions: 1 2 3 4 5 6 7 8 9 10 11 12 13 14 15 16 17 18 19 20 21 22 23 24 25 26 27 28 29 30 31 32 33 34 35 36 37 38 39 40 41 42 43 44 45 46 47 48 49 50

000
ASUS42 KMHX 171110
RWRMHX
WEATHER ROUNDUP FOR EASTERN NORTH CAROLINA
NATIONAL WEATHER SERVICE NEWPORT/MOREHEAD CITY NC
700 AM EDT WED SEP 17 2014

NOTE: "FAIR" INDICATES FEW OR NO CLOUDS BELOW 12,000 FEET
WITH NO SIGNIFICANT WEATHER AND/OR OBSTRUCTIONS TO VISIBILITY

NCZ015>017-031-032-045>047-102-103-171200-
NORTH COAST

CITY           SKY/WX    TMP DP  RH WIND       PRES   REMARKS
EDENTON        NOT AVBL
ELIZABETH CITY CLOUDY    71  64  78 NE13      29.97R
KITTY HAWK     CLOUDY    73  63  70 E7        29.96R
MANTEO         CLOUDY    73  63  71 NE10      29.96R

$$

NCZ045>047-081-094-103-104-171200-
CENTRAL COAST

CITY           SKY/WX    TMP DP  RH WIND       PRES   REMARKS
FRISCO         CLOUDY    71  67  87 NE8       29.93R
SWANQUARTER      N/A     72 N/A N/A NE6       29.91R

$$

NCZ095-097-098-100-101-171200-
SOUTHERN COAST

CITY           SKY/WX    TMP DP  RH WIND       PRES   REMARKS
BEAUFORT       MOCLDY    72  70  93 CALM      29.92R
CEDAR ISLAND     N/A     75 N/A N/A E15       29.97S
JACKSONVILLE   MOCLDY    69  66  90 NW3       29.92R
NEWPORT        NOT AVBL
PINEY ISLAND   LGT RAIN  74  70  87 E8        29.92S
WILMINGTON     PTCLDY    65  64  97 N6        29.93R


$$

NCZ011>013-027>030-043-044-078>080-089-090>093-098-171200-
COASTAL PLAIN

CITY           SKY/WX    TMP DP  RH WIND       PRES   REMARKS
AHOSKIE        CLOUDY    66  61  84 N3        29.98S
CLINTON        CLOUDY    65  65 100 N3        29.94S
ELIZABETHTOWN  CLOUDY    65  65 100 CALM      29.93R
GOLDSBORO      MOCLDY    68  68  98 CALM      29.93S
GREENVILLE     CLOUDY    68  64  88 N6        29.98S
HAVELOCK       CLOUDY    72  69  90 NE3       29.93S
KENANSVILLE    MOCLDY    66  65  95 N3        29.95S
KINSTON        CLOUDY    68  66  94 NE6       29.95S
NEW BERN       LGT RAIN  72  68  87 E7        29.94S
RICHLANDS      CLOUDY    66  63  88 NW5       29.93S
ROANOKE RAPIDS NOT AVBL
ROCKY MOUNT    CLOUDY    67  61  81 NE6       29.97R
WASHINGTON     CLOUDY    66  64  93 N3        29.95S
WHITEVILLE     MOCLDY    65  64  94 CALM      29.93R

$$

AMZ130-135-150-152-154-156-158-170-250-252-270-ANZ085-086-088-633-658-670-171200-
MARINE OBSERVATIONS

STATION/POSITION TIME  TEMP    WIND        PRES    WAVE   SWELL
                       AIR SEA DIR/SP/G            HT/PER HT/PER
                 (UTC) (F)     (DEG/KT/KT) (MB)    (FT/S) (FT/S)
CHESAPEAKE LIGHT 1000   71      60/ 14/ 15 1015.7
BUOY 44014       1100   73 77   50/ 14/ 17 1014.4    4/14   3/14
DUCK             1100   74 76   50/ 13/ 15 1013.8
2E DUCK          1100                        N/A     3/15   3/15
OREGON INLET     1100   73 76   50/ 11/ 15 1014.1
BUOY 44095       1100      76                N/A     4/14   3/14
20E OREGON INLET NOT AVBL
HATTERAS CG      1100   75 80   40/  8/ 15 1013.8
DIAMOND BUOY     1100   77      40/ 10/ 16 1013.0    4/15   3/15
CAPE LOOKOUT     1000   74      70/  8/  9 1012.5
BEAUFORT LAB     1100   72 80  360/  6/  7 1012.7
30 SE NEW RIVER  1000   76 81   50/ 12/ 16 1012.8
5 SE WRIGHTSVILL 1000   67 81  350/ 14/ 16   N/A
BUOY 41002       1010   77 82  170/  6/  8 1012.6    8/14   8/14
BUOY 41004       1100   78 83   30/ 14/ 16 1012.4    2/12   2/12

$$


USA.gov is the U.S. government's official web portal to all federal, state and local government web resources and services.